Keokuk, IA

7:56 AM CDT on June 23, 2017 (GMT -0500)
Keokuk Municipal

Weather History for KEOK - August, 2014

Change the Weather History Date:

Monday, August 11, 2014

  Actual Average Record
Temperature  
Mean Temperature 73 °F -  
Max Temperature 80 °F 83 °F 100 °F (1941)
Min Temperature 66 °F 63 °F 51 °F (2004)
Cooling Degree Days 8    
Growing Degree Days 23 (Base 50)    
Moisture  
Dew Point 66 °F    
Average Humidity 80    
Maximum Humidity 100    
Minimum Humidity 61    
Precipitation  
Precipitation 0.00 in - - ()
Sea Level Pressure  
Sea Level Pressure 29.95 in    
Wind  
Wind Speed 6 mph (NW)    
Max Wind Speed 17 mph    
Max Gust Speed 25 mph    
Visibility 9 miles    
Events      
Averages and records for this station are not official NWS values.
T = Trace of Precipitation, MM = Missing Value Source: NWS Daily Summary

Daily Weather History Graph

Daily Weather History Graph

Search for Another Location

Airport or City:

Trip Planner

Search our weather history database for the weather conditions in past years. The results will help you decide how hot, cold, wet, or windy it might be!

Date:

Astronomy

Aug. 11, 2014 Rise Set
Actual Time 6:12 AM CDT 8:08 PM CDT
Civil Twilight 5:43 AM CDT 8:38 PM CDT
Nautical Twilight 5:06 AM CDT 9:13 PM CDT
Astronomical Twilight 4:27 AM CDT 9:52 PM CDT
Moon 8:36 PM CDT (8/11) 7:18 AM CDT (8/11)
Length of Visible Light 14h 55m
Length of Day
13h 55m
Full, 99% of the Moon is Illuminated
Aug 11
Full
Aug 17
Last Quarter
Aug 25
New
Sep 2
First Quarter
Sep 8
Full

Hourly Weather History & Observations

Time (CDT) Temp. Heat Index Dew Point Humidity Pressure Visibility Wind Dir Wind Speed Gust Speed Precip Events Conditions
12:15 AM 69.8 °F - 68.0 °F 94% 29.99 in 10.0 mi East 4.6 mph - N/A   Overcast
12:35 AM 69.8 °F - 68.0 °F 94% 29.98 in 10.0 mi ENE 5.8 mph - N/A   Mostly Cloudy
12:55 AM 69.8 °F - 68.0 °F 94% 29.97 in 10.0 mi ENE 4.6 mph - N/A   Clear
1:15 AM 69.8 °F - 68.0 °F 94% 29.98 in 10.0 mi Calm Calm - N/A   Clear
1:35 AM 69.8 °F - 68.0 °F 94% 29.97 in 10.0 mi Calm Calm - N/A   Mostly Cloudy
1:55 AM 68.0 °F - 68.0 °F 100% 29.97 in 8.0 mi NW 3.5 mph - N/A   Mostly Cloudy
2:15 AM 68.0 °F - 68.0 °F 100% 29.95 in 9.0 mi WSW 3.5 mph - N/A   Mostly Cloudy
2:35 AM 68.0 °F - 68.0 °F 100% 29.95 in 5.0 mi West 3.5 mph - N/A   Partly Cloudy
3:15 AM 68.0 °F - 66.2 °F 94% 29.95 in 7.0 mi WSW 3.5 mph - N/A   Scattered Clouds
3:35 AM 68.0 °F - 68.0 °F 100% 29.95 in 6.0 mi West 5.8 mph - N/A   Mostly Cloudy
3:55 AM 68.0 °F - 68.0 °F 100% 29.95 in 6.0 mi West 5.8 mph - N/A   Mostly Cloudy
4:15 AM 68.0 °F - 66.2 °F 94% 29.95 in 6.0 mi WNW 5.8 mph - N/A   Mostly Cloudy
4:35 AM 68.0 °F - 66.2 °F 94% 29.95 in 10.0 mi WNW 4.6 mph - N/A   Mostly Cloudy
4:55 AM 68.0 °F - 66.2 °F 94% 29.95 in 10.0 mi WNW 5.8 mph - N/A   Overcast
5:15 AM 68.0 °F - 66.2 °F 94% 29.94 in 10.0 mi NW 4.6 mph - N/A   Overcast
5:35 AM 68.0 °F - 66.2 °F 94% 29.95 in 10.0 mi NW 5.8 mph - N/A   Overcast
5:55 AM 68.0 °F - 64.4 °F 88% 29.95 in 10.0 mi NW 5.8 mph - N/A   Overcast
6:15 AM 66.2 °F - 64.4 °F 94% 29.95 in 7.0 mi NNW 4.6 mph - N/A   Scattered Clouds
6:35 AM 66.2 °F - 64.4 °F 94% 29.96 in 6.0 mi NNW 5.8 mph - N/A   Clear
6:55 AM 66.2 °F - 64.4 °F 94% 29.95 in 5.0 mi NNW 4.6 mph - N/A   Clear
7:15 AM 66.2 °F - 64.4 °F 94% 29.96 in 7.0 mi NW 5.8 mph - N/A   Clear
7:35 AM 68.0 °F - 64.4 °F 88% 29.96 in 7.0 mi NW 5.8 mph - N/A   Clear
7:55 AM 69.8 °F - 66.2 °F 88% 29.96 in 8.0 mi NNW 5.8 mph - N/A   Clear
8:15 AM 69.8 °F - 66.2 °F 88% 29.96 in 8.0 mi NNW 5.8 mph - N/A   Clear
8:35 AM 71.6 °F - 66.2 °F 83% 29.96 in 9.0 mi NNW 5.8 mph - N/A   Clear
8:55 AM 73.4 °F - 66.2 °F 78% 29.96 in 9.0 mi Calm Calm - N/A   Clear
9:15 AM 73.4 °F - 66.2 °F 78% 29.96 in 10.0 mi NW 5.8 mph - N/A   Clear
9:35 AM 75.2 °F - 66.2 °F 73% 29.96 in 10.0 mi Variable 4.6 mph - N/A   Clear
9:55 AM 75.2 °F - 66.2 °F 73% 29.97 in 10.0 mi NW 4.6 mph 11.5 mph N/A   Clear
10:15 AM 77.0 °F - 66.2 °F 69% 29.96 in 10.0 mi WNW 5.8 mph - N/A   Clear
10:35 AM 77.0 °F - 68.0 °F 74% 29.97 in 9.0 mi Variable 6.9 mph - N/A   Partly Cloudy
10:55 AM 77.0 °F - 68.0 °F 74% 29.96 in 10.0 mi WNW 8.1 mph - N/A   Mostly Cloudy
11:15 AM 77.0 °F - 68.0 °F 74% 29.96 in 10.0 mi West 8.1 mph - N/A   Mostly Cloudy
11:35 AM 78.8 °F - 68.0 °F 69% 29.95 in 10.0 mi WNW 6.9 mph 17.3 mph N/A   Partly Cloudy
11:55 AM 78.8 °F - 69.8 °F 74% 29.95 in 10.0 mi West 8.1 mph - N/A   Scattered Clouds
12:15 PM 77.0 °F - 68.0 °F 74% 29.95 in 10.0 mi West 10.4 mph - N/A   Mostly Cloudy
12:35 PM 78.8 °F - 69.8 °F 74% 29.94 in 10.0 mi West 11.5 mph - N/A   Mostly Cloudy
12:55 PM 77.0 °F - 69.8 °F 78% 29.94 in 10.0 mi West 10.4 mph 18.4 mph N/A   Mostly Cloudy
1:15 PM 80.6 °F 84.6 °F 71.6 °F 74% 29.94 in 10.0 mi West 9.2 mph 16.1 mph N/A   Mostly Cloudy
1:35 PM 80.6 °F 84.6 °F 71.6 °F 74% 29.94 in 10.0 mi NW 15.0 mph - N/A   Mostly Cloudy
1:55 PM 78.8 °F - 69.8 °F 74% 29.94 in 8.0 mi NW 15.0 mph 23.0 mph N/A   Mostly Cloudy
2:15 PM 78.8 °F - 69.8 °F 74% 29.94 in 10.0 mi WNW 15.0 mph 23.0 mph N/A   Mostly Cloudy
2:35 PM 78.8 °F - 68.0 °F 69% 29.94 in 10.0 mi WNW 17.3 mph - N/A   Partly Cloudy
2:55 PM 78.8 °F - 68.0 °F 69% 29.93 in 10.0 mi NW 13.8 mph 20.7 mph N/A   Scattered Clouds
3:15 PM 80.6 °F 83.2 °F 68.0 °F 65% 29.93 in 10.0 mi NW 16.1 mph - N/A   Scattered Clouds
3:35 PM 80.6 °F 83.2 °F 68.0 °F 65% 29.93 in 10.0 mi NW 16.1 mph 21.9 mph N/A   Mostly Cloudy
3:55 PM 80.6 °F 83.2 °F 68.0 °F 65% 29.93 in 10.0 mi WNW 13.8 mph - N/A   Mostly Cloudy
4:15 PM 78.8 °F - 66.2 °F 65% 29.93 in 10.0 mi NW 12.7 mph 21.9 mph N/A   Mostly Cloudy
4:55 PM 78.8 °F - 64.4 °F 61% 29.92 in 10.0 mi NW 12.7 mph 20.7 mph N/A   Clear
5:15 PM 78.8 °F - 64.4 °F 61% 29.92 in 10.0 mi WNW 12.7 mph 19.6 mph N/A   Partly Cloudy
5:30 PM 78.8 °F - 64.4 °F 61% 29.93 in 10.0 mi NW 13.8 mph 21.9 mph N/A   Mostly Cloudy
5:55 PM 77.0 °F - 62.6 °F 61% 29.92 in 10.0 mi NW 9.2 mph 20.7 mph N/A   Scattered Clouds
6:15 PM 77.0 °F - 62.6 °F 61% 29.92 in 10.0 mi NW 16.1 mph - N/A   Clear
6:35 PM 75.2 °F - 62.6 °F 65% 29.92 in 10.0 mi NW 12.7 mph 25.3 mph N/A   Partly Cloudy
7:10 PM 75.2 °F - 62.6 °F 65% 29.92 in 10.0 mi NW 12.7 mph 19.6 mph N/A   Clear
7:35 PM 73.4 °F - 62.6 °F 69% 29.92 in 10.0 mi NNW 10.4 mph - N/A   Clear
7:55 PM 71.6 °F - 62.6 °F 73% 29.92 in 10.0 mi NW 8.1 mph - N/A   Clear
8:15 PM 71.6 °F - 62.6 °F 73% 29.93 in 10.0 mi NW 8.1 mph 17.3 mph N/A   Clear
8:35 PM 71.6 °F - 62.6 °F 73% 29.93 in 10.0 mi NNW 6.9 mph 13.8 mph N/A   Clear
8:55 PM 69.8 °F - 62.6 °F 78% 29.93 in 10.0 mi NW 6.9 mph - N/A   Clear